TimeEDT,TemperatureF,Dew PointF,Humidity,Sea Level PressureIn,VisibilityMPH,Wind Direction,Wind SpeedMPH,Gust SpeedMPH,PrecipitationIn,Events,Conditions,WindDirDegrees,DateUTC
12:52 AM,68.0,62.1,81,30.13,10.0,Calm,Calm,-,N/A,,Clear,0,2013-08-18 04:52:00
1:52 AM,66.9,62.1,84,30.13,10.0,Calm,Calm,-,N/A,,Mostly Cloudy,0,2013-08-18 05:52:00
2:52 AM,64.0,62.1,93,30.12,10.0,Calm,Calm,-,N/A,,Mostly Cloudy,0,2013-08-18 06:52:00
3:52 AM,66.0,62.1,87,30.12,10.0,NNE,4.6,-,N/A,,Scattered Clouds,20,2013-08-18 07:52:00
4:52 AM,64.9,62.1,90,30.12,10.0,North,4.6,-,N/A,,Mostly Cloudy,10,2013-08-18 08:52:00
5:52 AM,63.0,61.0,93,30.12,10.0,North,4.6,-,N/A,,Scattered Clouds,360,2013-08-18 09:52:00
6:52 AM,64.0,61.0,90,30.14,7.0,North,3.5,-,N/A,,Scattered Clouds,10,2013-08-18 10:52:00
7:52 AM,64.9,62.1,90,30.15,8.0,NE,6.9,-,N/A,,Scattered Clouds,40,2013-08-18 11:52:00
8:52 AM,68.0,63.0,84,30.16,10.0,ENE,5.8,-,N/A,,Scattered Clouds,60,2013-08-18 12:52:00
9:52 AM,72.0,63.0,73,30.17,10.0,ESE,5.8,-,N/A,,Scattered Clouds,110,2013-08-18 13:52:00
10:52 AM,73.9,63.0,68,30.17,10.0,East,5.8,-,N/A,,Scattered Clouds,80,2013-08-18 14:52:00
11:52 AM,78.1,62.1,58,30.17,10.0,NNE,6.9,-,N/A,,Scattered Clouds,30,2013-08-18 15:52:00
12:52 PM,79.0,60.1,52,30.15,10.0,North,6.9,-,N/A,,Mostly Cloudy,360,2013-08-18 16:52:00
1:52 PM,79.0,57.0,47,30.14,10.0,East,4.6,-,N/A,,Mostly Cloudy,100,2013-08-18 17:52:00
2:52 PM,79.0,55.0,44,30.13,10.0,Calm,Calm,-,N/A,,Scattered Clouds,0,2013-08-18 18:52:00
3:52 PM,81.0,57.9,45,30.11,10.0,East,6.9,-,N/A,,Scattered Clouds,80,2013-08-18 19:52:00
4:52 PM,80.1,55.9,43,30.10,10.0,Calm,Calm,-,N/A,,Scattered Clouds,0,2013-08-18 20:52:00
5:52 PM,82.0,59.0,45,30.09,10.0,Calm,Calm,-,N/A,,Scattered Clouds,0,2013-08-18 21:52:00
6:52 PM,80.1,57.9,47,30.09,10.0,WNW,5.8,-,N/A,,Scattered Clouds,290,2013-08-18 22:52:00
7:52 PM,77.0,59.0,54,30.09,10.0,West,3.5,-,N/A,,Partly Cloudy,260,2013-08-18 23:52:00
8:52 PM,73.9,60.1,62,30.10,10.0,Calm,Calm,-,N/A,,Partly Cloudy,0,2013-08-19 00:52:00
9:52 PM,71.1,61.0,70,30.12,10.0,Calm,Calm,-,N/A,,Partly Cloudy,0,2013-08-19 01:52:00
10:52 PM,69.1,64.9,87,30.13,10.0,SSE,3.5,-,N/A,,Scattered Clouds,150,2013-08-19 02:52:00
11:52 PM,68.0,64.9,90,30.13,9.0,South,3.5,-,N/A,,Partly Cloudy,170,2013-08-19 03:52:00